Location: Igon
(43.1667°N, 0.2333°W)
Time: 16:29:22
(UTC+00:00)

Gbstr 26 Del rocket - Visible Passes

Search period start: 21 April 2021 00:00
Search period end: 01 May 2021 00:00
Orbit: 492 x 1263 km, 51.8° (Epoch: 21 April)

Date Brightness Start Highest point End Pass type
(mag) Time Alt. Az. Time Alt. Az. Time Alt. Az.
21 Apr 4.1 01:46:45 56° NW 01:47:09 58° NNW 01:52:26 10° NE visible
21 Apr 4.9 03:29:46 10° WNW 03:34:58 32° N 03:39:18 10° ENE visible
21 Apr 5.6 23:59:04 21° ENE 23:59:04 21° ENE 00:00:51 10° ENE visible
22 Apr 4.3 01:41:32 48° NW 01:42:21 52° NNW 01:47:36 10° NE visible
22 Apr 5.0 03:25:04 10° WNW 03:30:16 32° N 03:34:35 10° ENE visible
22 Apr 5.4 23:53:47 26° ENE 23:53:47 26° ENE 23:56:03 10° ENE visible
23 Apr 4.5 01:36:15 41° NW 01:37:33 47° NNW 01:42:46 10° NE visible
23 Apr 5.0 03:20:19 10° WNW 03:25:34 32° N 03:29:54 10° ENE visible
23 Apr 5.2 23:48:24 31° ENE 23:48:24 31° ENE 23:51:13 10° ENE visible
24 Apr 4.7 01:30:51 34° WNW 01:32:47 43° NNW 01:37:58 10° NE visible
24 Apr 5.0 03:15:34 10° WNW 03:20:51 33° N 03:25:13 10° ENE visible
24 Apr 4.8 23:42:51 40° NE 23:42:51 40° NE 23:46:23 10° ENE visible
25 Apr 4.8 01:25:18 28° WNW 01:28:01 41° NNW 01:33:10 10° NE visible
25 Apr 4.9 03:10:47 10° WNW 03:16:09 35° N 03:20:33 10° ENE visible
25 Apr 4.4 23:37:00 55° NE 23:37:00 55° NE 23:41:33 10° NE visible
26 Apr 5.0 01:19:25 20° WNW 01:23:16 39° NNW 01:28:23 10° ENE visible
26 Apr 4.8 03:05:59 10° WNW 03:11:26 37° N 03:15:53 10° E visible
26 Apr 5.8 21:48:10 17° ENE 21:48:10 17° ENE 21:49:36 10° ENE visible
26 Apr 4.2 23:30:30 70° NW 23:30:37 70° NNW 23:36:42 10° NE visible
27 Apr 5.1 01:12:51 12° WNW 01:18:32 37° N 01:23:37 10° ENE visible
27 Apr 4.7 03:01:09 10° NW 03:06:42 40° NNE 03:11:14 10° E visible
27 Apr 5.8 19:49:06 10° SE 19:52:00 12° ESE 19:54:03 11° ESE visible
27 Apr 4.3 21:31:01 10° SSW 21:38:27 49° SE 21:44:51 10° ENE visible
27 Apr 4.4 23:18:26 10° WSW 23:25:47 63° NNW 23:31:51 10° NE visible
28 Apr 5.1 01:07:40 10° WNW 01:13:49 37° N 01:18:53 10° ENE visible
28 Apr 4.6 02:56:18 10° NW 03:01:59 44° NNE 03:06:33 10° E visible
28 Apr 5.6 19:42:33 10° SSE 19:46:54 16° SE 19:51:03 10° E visible
28 Apr 4.2 21:25:52 10° SW 21:33:30 58° SE 21:40:04 10° ENE visible
28 Apr 4.6 23:13:40 10° WSW 23:20:58 57° NNW 23:27:01 10° NE visible
29 Apr 5.2 01:02:58 10° WNW 01:09:06 36° N 01:14:09 10° ENE visible
29 Apr 4.4 02:51:26 10° NW 02:57:13 50° NNE 03:01:53 10° E visible
29 Apr 5.5 19:36:30 10° SSE 19:41:51 20° SE 19:46:51 10° E visible
29 Apr 4.2 21:20:47 10° SW 21:28:34 68° SE 21:35:15 10° ENE visible
29 Apr 4.8 23:08:56 10° W 23:16:10 52° NNW 23:22:10 10° NE visible
30 Apr 5.2 00:58:14 10° WNW 01:04:23 37° N 01:09:27 10° ENE visible
30 Apr 4.1 02:46:33 10° NW 02:52:27 56° NNE 02:57:10 10° ESE visible
30 Apr 5.3 19:30:44 10° S 19:36:48 24° SE 19:42:26 10° ENE visible
30 Apr 4.2 21:15:47 10° SW 21:23:39 78° SE 21:30:25 10° ENE visible
30 Apr 4.9 23:04:13 10° W 23:11:23 48° NNW 23:17:21 10° NE visible
